Back to catalog

CIEL-2

AliveCommunicationsGEO
NORAD 33453·PAYLOAD·🇨🇦 Canada

Launched Dec 10, 2008 from Baikonur Cosmodrome

Loading…

TLE

FreshSource: Space-Track

Epoch: Sep 14, 2026, 13:12 UTC

1 33453U 08063A   26257.55044412  .00000065  00000-0  00000-0 0  9993
2 33453   3.0181  79.6982 0008225 355.6170 351.6229  0.99021538 64902

Track CIEL-2 in real time with AllMySat

Download on the App Store